Location: ??????
(30.5519°N, 47.7720°E)
Time: 16:05:56
(UTC+00:00)

Cosmos 1809 Rocket - Pass Details

Date: 24 January 2021
Orbit: 942 x 963 km, 82.5° (Epoch: 02 March)

Event Time Altitude Azimuth Distance (km) Brightness Sun altitude
Rises 15:59:37 0° 172° (S) 3,595 7.5 -21.8°
Reaches altitude 10° 16:02:08 10° 167° (SSE) 2,656 6.7 -22.3°
Maximum altitude 16:08:01 53° 92° (E) 1,148 4.5 -23.6°
Enters shadow 16:08:47 50° 66° (ENE) 1,191 4.5 -23.7°
